Overview Statistics Trail Chart Weather Telemetry Raw packets
 

This is the latest recevied weather packets stored in our database for station/object W0WC. If no packets are shown the sender has not sent any weather packets the latest 10 day(s).

<< 1 2 3 4 >>
Time Temp. Humidity Pressure Rain* Wind** Luminosity Snow
1788696434 25.56° C 68% 1015.1 hPa 0 mm - 11 W/m² -
1788696131 25.56° C 68% 1014.8 hPa 0 mm - 8 W/m² -
1788695826 25.56° C 69% 1015 hPa 0 mm - 5 W/m² -
1788695521 25.56° C 69% 1014.8 hPa 0 mm - 3 W/m² -
1788695220 25.56° C 69% 1014.8 hPa 0 mm - 2 W/m² -
1788694915 25.56° C 69% 1015 hPa 0 mm - 1 W/m² -
1788694615 25.56° C 68% 1014.8 hPa 0 mm - 0 W/m² -
1788694315 26.11° C 68% 1015 hPa 0 mm - 0 W/m² -
1788694014 26.11° C 67% 1014.8 hPa 0 mm - 0 W/m² -
1788693712 26.11° C 67% 1014.8 hPa 0 mm - 0 W/m² -
1788693411 26.11° C 66% 1014.6 hPa 0 mm - 0 W/m² -
1788693105 26.11° C 66% 1014.8 hPa 0 mm - 0 W/m² -
1788692801 26.67° C 66% 1014.7 hPa 0 mm - 0 W/m² -
1788692496 26.67° C 66% 1014.7 hPa 0 mm - 0 W/m² -
1788692190 26.67° C 65% 1014.8 hPa 0 mm - 0 W/m² -
1788691886 26.67° C 65% 1014.7 hPa 0 mm - 0 W/m² -
1788691585 26.67° C 66% 1014.8 hPa 0 mm - 0 W/m² -
1788691279 26.67° C 66% 1014.7 hPa 0 mm - 0 W/m² -
1788690978 26.67° C 66% 1014.6 hPa 0 mm - 0 W/m² -
1788690673 26.11° C 66% 1014.6 hPa 0 mm - 0 W/m² -
1788690368 26.11° C 68% 1014.5 hPa 0 mm - 0 W/m² -
1788690062 25.56° C 69% 1014.2 hPa 0 mm - 0 W/m² -
1788689757 25° C 71% 1014.4 hPa 0 mm - 0 W/m² -
1788689451 25° C 71% 1014.5 hPa 0 mm - 0 W/m² -
1788689147 25.56° C 70% 1014.2 hPa 0 mm - 0 W/m² -

* Rain latest hour (hover to see other rain measurements)
** Current wind speed in m/s (hover to see current wind gust speed)